Location: Star Dogged Moon Observatory
(29.7756°N, 82.0783°W)
Time: 20:33:44
(UTC-04:00)

Amateur Radio Satellites - All Passes

Search period start: 28 July 2014 20:03
Search period end: 29 July 2014 20:03
Location: Star Dogged Moon Observatory, 29.7756°N, 82.0783°W

Satellite Date Start Highest point End Downlink Frequencies (MHz)
Time Altitude Azimuth
STRAND 1 28 Jul 20:11:50 20:16:57 83° 103° (ESE) 20:22:02 ?
SO-67 28 Jul 20:21:48 20:25:05 42° 261° (W) 20:28:24 435.3500 MHz FM
MaSat-1 28 Jul 21:02:41 21:05:36 22° 102° (ESE) 21:08:53 437.345 MHz
HO-68 28 Jul 21:36:51 21:43:57 68° 72° (ENE) 21:51:04 435.675 MHz FM
UKube-1 28 Jul 21:50:34 21:54:48 53° 75° (ENE) 21:59:04 145.840 MHz, 145.915 MHz
Oscar 11 28 Jul 22:36:02 22:40:20 88° 77° (ENE) 22:44:39 145.825 FM, Beacon 2401.500 USB
RS-15 28 Jul 22:39:40 22:49:42 38° 53° (NE) 23:00:01 29.354 - 29.394 USB, Beacon 29.352 USB
MaSat-1 28 Jul 22:39:46 22:42:46 21° 301° (WNW) 22:46:07 437.345 MHz
SO-50 28 Jul 22:39:57 22:44:43 67° 62° (ENE) 22:49:31 436.795 FM
ISS 28 Jul 22:51:23 22:54:11 26° 128° (SE) 22:57:00 145.800 FM
FUNcube-1 28 Jul 22:56:51 23:01:04 49° 75° (ENE) 23:05:12 145.950 - 145.970 MHz USB
HO-68 28 Jul 23:27:47 23:32:01 17° 265° (W) 23:36:17 435.675 MHz FM
ISS 29 Jul 00:28:18 00:30:51 20° 321° (NW) 00:33:26 145.800 FM
Sapphire 29 Jul 00:41:17 00:46:18 40° 109° (ESE) 00:51:20 437.095 MHz 1200 baud AX-25 AFSK
UOSAT-12 29 Jul 00:42:17 00:47:01 84° 63° (ENE) 00:51:39 437.025 FM, 437.400 FM
RS-15 29 Jul 00:51:34 01:02:15 54° 250° (WSW) 01:13:24 29.354 - 29.394 USB, Beacon 29.352 USB
PCSat 29 Jul 01:14:15 01:19:38 86° 294° (WNW) 01:25:05 145.825 MHz
AO-40 29 Jul 01:24:33 04:10:12 25° 115° (ESE) 05:26:23 Beacon 2401.320
Oscar 16 29 Jul 01:45:22 01:47:21 12° 94° (E) 01:49:21 437.025 USB, Beacon 2401.1428
AO-27 29 Jul 02:24:53 02:27:11 13° 94° (E) 02:29:29 436.795 MHz FM
Uribyol 2 29 Jul 02:24:57 02:27:29 14° 94° (E) 02:30:01 436.500 FM
Sapphire 29 Jul 02:25:47 02:29:48 21° 303° (WNW) 02:33:51 437.095 MHz 1200 baud AX-25 AFSK
Oscar 19 29 Jul 02:53:25 02:58:35 69° 102° (ESE) 03:03:44 437.125 CW, 437.150 USB
AO-Echo 29 Jul 03:10:53 03:15:39 44° 99° (E) 03:20:15 ?
Oscar 16 29 Jul 03:21:53 03:26:56 56° 286° (WNW) 03:31:59 437.025 USB, Beacon 2401.1428
JAS-1B 29 Jul 03:30:48 03:39:19 46° 97° (E) 03:46:30 435.800 - 435.900 CW/SSB
ITAMSAT 1 29 Jul 03:42:32 03:47:43 87° 283° (WNW) 03:52:53 435.822 SSB
Oscar 10/S400 29 Jul 03:46:33 04:55:11 70° 215° (SW) 14:26:07 145.825 - 145.975 CW/USB, Beacon 145.810 USB
TMSAT-1 29 Jul 03:59:53 04:04:45 36° 99° (E) 04:09:34 436.925 FM
AO-27 29 Jul 04:01:53 04:06:55 53° 286° (WNW) 04:11:55 436.795 MHz FM
Uribyol 2 29 Jul 04:02:10 04:07:09 50° 286° (WNW) 04:12:06 436.500 FM
PANSAT 29 Jul 04:09:07 04:12:09 22° 158° (SSE) 04:15:12 not established
Gurwin Techsat 1B 29 Jul 04:23:54 04:29:13 86° 283° (WNW) 04:34:31 435.225 FM
Oscar 19 29 Jul 04:36:05 04:37:16 11° 295° (WNW) 04:38:27 437.125 CW, 437.150 USB
AO-7 29 Jul 04:49:20 04:56:11 28° 98° (E) 05:02:58 29.400 - 29.500 MHz
AO-Echo 29 Jul 04:51:08 04:53:57 15° 293° (WNW) 04:56:44 ?
OPAL 29 Jul 04:58:34 05:03:29 71° 256° (WSW) 05:08:26 ?
Uosat F 29 Jul 05:07:52 05:12:25 35° 99° (E) 05:16:56 435.120 FM
JAS-1B 29 Jul 05:21:34 05:29:22 34° 296° (WNW) 05:36:13 435.800 - 435.900 CW/SSB
KITSAT 1 29 Jul 05:24:21 05:30:27 24° 104° (ESE) 05:36:33 435.175 FM
TMSAT-1 29 Jul 05:40:31 05:44:21 21° 291° (WNW) 05:48:12 436.925 FM
PANSAT 29 Jul 05:48:15 05:52:03 56° 170° (S) 05:55:51 not established
AO-7 29 Jul 06:41:08 06:49:04 51° 292° (WNW) 06:56:58 29.400 - 29.500 MHz
Uosat F 29 Jul 06:47:21 06:50:54 20° 291° (WNW) 06:54:27 435.120 FM
ISS 29 Jul 07:01:11 07:03:59 24° 40° (NE) 07:06:46 145.800 FM
MaSat-1 29 Jul 07:03:22 07:07:30 23° 60° (ENE) 07:11:24 437.345 MHz
JAS-2 29 Jul 07:05:40 07:10:43 33° 97° (E) 07:15:24 435.800 - 435.900 CW/SSB, 435.910 FM
KITSAT 1 29 Jul 07:17:19 07:25:14 58° 299° (WNW) 07:33:12 435.175 FM
STRAND 1 29 Jul 07:21:40 07:26:45 64° 75° (ENE) 07:31:50 ?
PANSAT 29 Jul 07:28:18 07:32:09 73° 182° (S) 07:36:01 not established
Hamsat 29 Jul 07:29:05 07:33:24 84° 282° (WNW) 07:37:45 145.90 MHz
SO-67 29 Jul 07:52:13 07:54:43 19° 96° (E) 07:57:13 435.3500 MHz FM
Saudisat 1A 29 Jul 08:02:53 08:07:17 74° 298° (WNW) 08:11:42 436.775 MHz
ISS 29 Jul 08:37:58 08:40:35 21° 233° (SW) 08:43:11 145.800 FM
MaSat-1 29 Jul 08:40:14 08:44:51 33° 256° (WSW) 08:49:07 437.345 MHz
JAS-2 29 Jul 08:51:14 08:55:32 23° 293° (WNW) 08:59:35 435.800 - 435.900 CW/SSB, 435.910 FM
STRAND 1 29 Jul 09:05:20 09:06:14 10° 267° (W) 09:07:08 ?
PANSAT 29 Jul 09:08:32 09:12:13 42° 195° (SSW) 09:15:52 not established
HO-68 29 Jul 09:13:23 09:17:41 17° 95° (E) 09:21:57 435.675 MHz FM
KITSAT 1 29 Jul 09:21:40 09:22:25 10° 319° (NW) 09:23:09 435.175 FM
SO-67 29 Jul 09:25:26 09:27:36 16° 288° (WNW) 09:29:45 435.3500 MHz FM
UKube-1 29 Jul 09:46:25 09:48:51 15° 95° (E) 09:51:17 145.840 MHz, 145.915 MHz
PCSat 29 Jul 10:09:10 10:13:20 22° 57° (ENE) 10:17:29 145.825 MHz
Oscar 11 29 Jul 10:30:15 10:33:51 25° 97° (E) 10:37:26 145.825 FM, Beacon 2401.500 USB
PANSAT 29 Jul 10:49:52 10:52:00 14° 205° (SSW) 10:54:07 not established
FUNcube-1 29 Jul 10:53:19 10:55:43 15° 95° (E) 10:58:08 145.950 - 145.970 MHz USB
HO-68 29 Jul 10:58:41 11:05:45 67° 288° (WNW) 11:12:47 435.675 MHz FM
Sapphire 29 Jul 11:18:04 11:23:31 90° 64° (ENE) 11:28:55 437.095 MHz 1200 baud AX-25 AFSK
UKube-1 29 Jul 11:21:10 11:25:05 34° 287° (WNW) 11:28:59 145.840 MHz, 145.915 MHz
PCSat 29 Jul 11:51:49 11:56:48 38° 251° (WSW) 12:01:46 145.825 MHz
Oscar 11 29 Jul 12:06:40 12:09:49 20° 289° (WNW) 12:12:59 145.825 FM, Beacon 2401.500 USB
FUNcube-1 29 Jul 12:28:26 12:32:07 31° 286° (WNW) 12:35:51 145.950 - 145.970 MHz USB
SO-50 29 Jul 12:49:14 12:53:39 89° 297° (WNW) 12:58:10 436.795 FM
RS-15 29 Jul 12:55:37 13:05:53 42° 108° (ESE) 13:15:50 29.354 - 29.394 USB, Beacon 29.352 USB
Uribyol 2 29 Jul 13:38:08 13:40:05 12° 65° (ENE) 13:42:03 436.500 FM
AO-27 29 Jul 13:38:22 13:40:05 12° 65° (ENE) 13:41:49 436.795 MHz FM
Oscar 19 29 Jul 14:04:24 14:09:21 53° 74° (ENE) 14:14:19 437.125 CW, 437.150 USB
JAS-1B 29 Jul 14:07:19 14:14:11 26° 62° (ENE) 14:21:35 435.800 - 435.900 CW/SSB
AO-Echo 29 Jul 14:17:32 14:22:11 33° 71° (ENE) 14:26:53 ?
Oscar 16 29 Jul 14:32:42 14:37:48 73° 258° (WSW) 14:42:55 437.025 USB, Beacon 2401.1428
UOSAT-12 29 Jul 14:47:32 14:52:05 78° 297° (WNW) 14:56:44 437.025 FM, 437.400 FM
ITAMSAT 1 29 Jul 14:54:25 14:59:37 77° 76° (ENE) 15:04:50 435.822 SSB
RS-15 29 Jul 15:07:26 15:17:58 46° 304° (NW) 15:28:19 29.354 - 29.394 USB, Beacon 29.352 USB
AO-27 29 Jul 15:13:48 15:18:58 66° 258° (WSW) 15:24:10 436.795 MHz FM
Uribyol 2 29 Jul 15:13:50 15:18:58 62° 259° (WSW) 15:24:07 436.500 FM
TMSAT-1 29 Jul 15:14:55 15:19:34 32° 71° (ENE) 15:24:13 436.925 FM
KITSAT 1 29 Jul 15:18:03 15:24:33 26° 53° (NE) 15:31:00 435.175 FM
Gurwin Techsat 1B 29 Jul 15:38:52 15:44:10 82° 76° (ENE) 15:49:29 435.225 FM
AO-7 29 Jul 15:42:42 15:48:53 24° 61° (ENE) 15:55:04 29.400 - 29.500 MHz
Oscar 19 29 Jul 15:46:43 15:48:54 13° 266° (W) 15:51:06 437.125 CW, 437.150 USB
JAS-1B 29 Jul 15:55:14 16:03:38 67° 259° (W) 16:13:17 435.800 - 435.900 CW/SSB
AO-Echo 29 Jul 15:56:44 16:00:53 24° 264° (W) 16:05:05 ?
Uosat F 29 Jul 16:15:38 16:19:46 26° 70° (ENE) 16:23:55 435.120 FM
Saudisat 1A 29 Jul 16:36:31 16:39:21 17° 53° (NE) 16:42:10 436.775 MHz
TMSAT-1 29 Jul 16:55:16 16:59:25 23° 264° (W) 17:03:36 436.925 FM
KITSAT 1 29 Jul 17:12:26 17:20:19 59° 249° (WSW) 17:28:09 435.175 FM
OPAL 29 Jul 17:14:17 17:19:16 52° 103° (ESE) 17:24:17 ?
JAS-2 29 Jul 17:14:43 17:16:21 11° 61° (ENE) 17:17:57 435.800 - 435.900 CW/SSB, 435.910 FM
AO-7 29 Jul 17:32:42 17:40:57 64° 256° (WSW) 17:49:15 29.400 - 29.500 MHz
RS-15 29 Jul 17:33:17 17:34:06 10° 333° (NNW) 17:34:56 29.354 - 29.394 USB, Beacon 29.352 USB
Uosat F 29 Jul 17:54:12 17:58:24 26° 262° (W) 18:02:37 435.120 FM
Saudisat 1A 29 Jul 18:14:58 18:19:02 37° 247° (WSW) 18:23:03 436.775 MHz
Hamsat 29 Jul 18:16:57 18:20:36 30° 73° (ENE) 18:24:17 145.90 MHz
JAS-2 29 Jul 18:52:26 19:00:15 73° 75° (ENE) 19:07:42 435.800 - 435.900 CW/SSB, 435.910 FM
OPAL 29 Jul 18:54:58 18:57:40 15° 295° (WNW) 19:00:23 ?
STRAND 1 29 Jul 19:38:47 19:43:26 35° 99° (E) 19:48:03 ?
SO-67 29 Jul 19:51:26 19:54:50 60° 77° (ENE) 19:58:16 435.3500 MHz FM
Hamsat 29 Jul 19:54:14 19:56:35 15° 265° (W) 19:58:57 145.90 MHz
